Flag for U.S.A. Weather past 2 weeks in Port St. Lucie, Florida, U.S.A.

73 °F


Feels Like: 70 °F
Forecast: 72 / 87 °F
Wind: 3 mph from West

Location: Witham Field Airport

Current Time: Oct 10, 2015 at 5:59:46 AM

Latest Report: Oct 10, 2015 at 5:35 AM

Visibility: 10 mi

Pressure: 29.95 "Hg

Humidity: 94%

Dew point: 72 °F

Location of Port St. LucieLocation

Historic Weather in Port St. Lucie — Graph


Port St. Lucie temperature yesterday

Maximum temperature yesterday: 86 °F (at 12:47 PM)
Minimum temperature yesterday: 72 °F (at 3:55 AM)
Average temperature yesterday: 77 °F

Past Weeks' High & Low Weather Summary

High90 °F (Sep 30, 2:47 PM)100% (Sep 25, 4:15 AM)30.07 "Hg (Sep 25, 4:15 AM)
Low64 °F (Oct 4, 6:15 AM)48% (Oct 3, 2:47 PM)29.51 "Hg (Oct 2, 3:47 PM)
Average77 °F83%29.84 "Hg
* Reported Sep 25 4:15 AM — Oct 10 4:55 AM, Port St. Lucie, Weather by CustomWeather, © 2015

Note: Actual official high and low records may vary slightly from our data, if they occured in-between our weather recording intervals... More about our weather records


Port St. Lucie weather history for previous 24 hours

Time TempWeatherWind HumidityBarometerVisibility
4:55 AM
Sat, Oct 10
73 °FClear.6 mph94%29.95 "Hg10 mi
4:35 AM73 °FClear.5 mph94%29.95 "Hg10 mi
4:15 AM73 °FClear.5 mph94%29.96 "Hg10 mi
3:55 AM73 °FClear.5 mph94%29.96 "Hg10 mi
3:35 AM73 °FClear.No wind94%29.96 "Hg10 mi
3:15 AM73 °FClear.No wind94%29.96 "Hg10 mi
2:55 AM75 °FClear.No wind89%29.97 "Hg10 mi
2:35 AM75 °FClear.No wind89%29.97 "Hg10 mi
2:15 AM75 °FClear.No wind89%29.98 "Hg10 mi
1:55 AM75 °FClear.No wind89%29.99 "Hg10 mi
1:35 AM75 °FClear.No wind89%29.99 "Hg10 mi
1:15 AM75 °FClear.No wind89%29.99 "Hg10 mi
12:55 AM75 °FClear.3 mph89%30.00 "Hg10 mi
12:35 AM75 °FClear.5 mph89%30.00 "Hg10 mi
12:15 AM77 °FClear.3 mph83%30.00 "Hg10 mi
11:55 PM
Fri, Oct 9
77 °FClear.6 mph83%30.01 "Hg10 mi
11:35 PM77 °FClear.6 mph83%30.02 "Hg10 mi
11:15 PM77 °FClear.6 mph83%30.02 "Hg10 mi
10:55 PM77 °FClear.8 mph83%30.01 "Hg10 mi
10:35 PM77 °FClear.6 mph83%30.00 "Hg10 mi
10:15 PM77 °FClear.5 mph83%30.00 "Hg10 mi
9:55 PM77 °FClear.5 mph83%30.00 "Hg10 mi
9:35 PM79 °FClear.5 mph79%30.00 "Hg10 mi
9:15 PM79 °FClear.5 mph79%29.99 "Hg10 mi
8:55 PM79 °FClear.6 mph79%29.99 "Hg10 mi
8:35 PM79 °FPassing clouds.No wind79%29.98 "Hg10 mi
8:15 PM79 °FPartly cloudy.3 mph79%29.98 "Hg10 mi
7:55 PM79 °FScattered clouds.No wind79%29.98 "Hg10 mi
7:35 PM79 °FSunny.No wind79%29.98 "Hg10 mi
7:15 PM79 °FSunny.3 mph79%29.98 "Hg10 mi
6:55 PM81 °FSunny.3 mph74%29.97 "Hg10 mi
6:35 PM81 °FSunny.3 mph74%29.98 "Hg10 mi
6:15 PM81 °FSunny.7 mph74%29.98 "Hg10 mi
4:47 PM84 °FScattered clouds.9 mph70%29.97 "Hg7 mi
3:47 PM82 °FScattered clouds.9 mph74%29.97 "Hg7 mi
2:47 PM84 °FScattered clouds.12 mph70%29.98 "Hg7 mi
1:47 PM86 °FPartly sunny.10 mph62%30.01 "Hg7 mi
12:47 PM86 °FScattered clouds.9 mph62%30.04 "Hg7 mi
11:50 AM84 °FScattered clouds.12 mph66%30.06 "Hg7 mi
10:47 AM82 °FScattered clouds.6 mph74%30.07 "Hg7 mi
9:50 AM77 °FSunny.5 mph89%30.05 "Hg7 mi
8:50 AM75 °FScattered clouds.No wind94%30.05 "Hg7 mi
7:50 AM72 °FPassing clouds.5 mph100%30.03 "Hg7 mi
6:50 AM73 °FPartly cloudy.6 mph94%30.01 "Hg7 mi
6:15 AM72 °FClear.3 mph94%29.99 "Hg10 mi
5:55 AM72 °FClear.6 mph94%29.99 "Hg10 mi
5:35 AM72 °FClear.6 mph94%29.99 "Hg10 mi
5:15 AM72 °FPassing clouds.5 mph100%29.99 "Hg10 mi
Weather by CustomWeather, © 2015

See weather overviewHow to use our weather pages